Year,Month,Day,Hour,Minute,Value (Times are PST for temperature in C)
2015,06,22,00,00,17.80
2015,06,22,00,01,17.70
2015,06,22,00,02,17.70
2015,06,22,00,03,17.70
2015,06,22,00,04,17.70
2015,06,22,00,05,17.70
2015,06,22,00,06,17.70
2015,06,22,00,07,17.70
2015,06,22,00,08,17.80
2015,06,22,00,09,17.80
2015,06,22,00,10,17.80
2015,06,22,00,11,17.80
2015,06,22,00,12,17.70
2015,06,22,00,13,17.70
2015,06,22,00,14,17.70
2015,06,22,00,15,17.70
2015,06,22,00,16,17.60
2015,06,22,00,17,17.60
2015,06,22,00,18,17.50
2015,06,22,00,19,17.60
2015,06,22,00,20,17.60
2015,06,22,00,21,17.60
2015,06,22,00,22,17.60
2015,06,22,00,23,17.70
2015,06,22,00,24,17.60
2015,06,22,00,25,17.60
2015,06,22,00,26,17.60
2015,06,22,00,27,17.60
2015,06,22,00,28,17.70
2015,06,22,00,29,17.70
2015,06,22,00,30,17.70
2015,06,22,00,31,17.80
2015,06,22,00,32,17.80
2015,06,22,00,33,17.80
2015,06,22,00,34,17.80
2015,06,22,00,35,17.80
2015,06,22,00,36,17.70
2015,06,22,00,37,17.70
2015,06,22,00,38,17.70
2015,06,22,00,39,17.70
2015,06,22,00,40,17.80
2015,06,22,00,41,17.80
2015,06,22,00,42,17.90
2015,06,22,00,43,17.90
2015,06,22,00,44,17.90
2015,06,22,00,45,17.90
2015,06,22,00,46,17.90
2015,06,22,00,47,17.80
2015,06,22,00,48,17.80
2015,06,22,00,49,17.80
2015,06,22,00,50,17.80
2015,06,22,00,51,17.80
2015,06,22,00,52,17.90
2015,06,22,00,53,17.90
2015,06,22,00,54,17.90
2015,06,22,00,55,17.90
2015,06,22,00,56,17.80
2015,06,22,00,57,17.80
2015,06,22,00,58,17.80
2015,06,22,00,59,17.80
2015,06,22,01,00,17.70
2015,06,22,01,01,17.70
2015,06,22,01,02,17.70
2015,06,22,01,03,17.60
2015,06,22,01,04,17.50
2015,06,22,01,05,17.50
2015,06,22,01,06,17.50
2015,06,22,01,07,17.40
2015,06,22,01,08,17.40
2015,06,22,01,09,17.40
2015,06,22,01,10,17.30
2015,06,22,01,11,17.30
2015,06,22,01,12,17.30
2015,06,22,01,13,17.20
2015,06,22,01,14,17.10
2015,06,22,01,15,17.10
2015,06,22,01,16,17.00
2015,06,22,01,17,17.00
2015,06,22,01,18,17.00
2015,06,22,01,19,17.00
2015,06,22,01,20,16.90
2015,06,22,01,21,16.90
2015,06,22,01,22,16.90
2015,06,22,01,23,16.90
2015,06,22,01,24,16.90
2015,06,22,01,25,16.90
2015,06,22,01,26,16.90
2015,06,22,01,27,16.90
2015,06,22,01,28,16.90
2015,06,22,01,29,16.80
2015,06,22,01,30,16.80
2015,06,22,01,31,16.80
2015,06,22,01,32,16.80
2015,06,22,01,33,16.80
2015,06,22,01,34,16.80
2015,06,22,01,35,16.90
2015,06,22,01,36,16.90
2015,06,22,01,37,16.90
2015,06,22,01,38,17.00
2015,06,22,01,39,17.00
2015,06,22,01,40,17.00
2015,06,22,01,41,17.00
2015,06,22,01,42,17.00
2015,06,22,01,43,17.00
2015,06,22,01,44,16.90
2015,06,22,01,45,16.90
2015,06,22,01,46,16.90
2015,06,22,01,47,16.80
2015,06,22,01,48,16.80
2015,06,22,01,49,16.80
2015,06,22,01,50,16.80
2015,06,22,01,51,16.80
2015,06,22,01,52,16.80
2015,06,22,01,53,16.80
2015,06,22,01,54,16.80
2015,06,22,01,55,16.70
2015,06,22,01,56,16.70
2015,06,22,01,57,16.60
2015,06,22,01,58,16.60
2015,06,22,01,59,16.50
2015,06,22,02,00,16.50
2015,06,22,02,01,16.40
2015,06,22,02,02,16.40
2015,06,22,02,03,16.30
2015,06,22,02,04,16.30
2015,06,22,02,05,16.20
2015,06,22,02,06,16.20
2015,06,22,02,07,16.10
2015,06,22,02,08,16.00
2015,06,22,02,09,16.00
2015,06,22,02,10,15.90
2015,06,22,02,11,15.90
2015,06,22,02,12,15.80
2015,06,22,02,13,15.80
2015,06,22,02,14,15.70
2015,06,22,02,15,15.70
2015,06,22,02,16,15.60
2015,06,22,02,17,15.60
2015,06,22,02,18,15.50
2015,06,22,02,19,15.40
2015,06,22,02,20,15.40
2015,06,22,02,21,15.30
2015,06,22,02,22,15.30
2015,06,22,02,23,15.20
2015,06,22,02,24,15.20
2015,06,22,02,25,15.10
2015,06,22,02,26,15.10
2015,06,22,02,27,15.00
2015,06,22,02,28,15.00
2015,06,22,02,29,14.90
2015,06,22,02,30,14.90
2015,06,22,02,31,14.80
2015,06,22,02,32,14.80
2015,06,22,02,33,14.80
2015,06,22,02,34,14.70
2015,06,22,02,35,14.70
2015,06,22,02,36,14.70
2015,06,22,02,37,14.70
2015,06,22,02,38,14.60
2015,06,22,02,39,14.60
2015,06,22,02,40,14.60
2015,06,22,02,41,14.60
2015,06,22,02,42,14.60
2015,06,22,02,43,14.60
2015,06,22,02,44,14.50
2015,06,22,02,45,14.50
2015,06,22,02,46,14.50
2015,06,22,02,47,14.50
2015,06,22,02,48,14.40
2015,06,22,02,49,14.40
2015,06,22,02,50,14.40
2015,06,22,02,51,14.40
2015,06,22,02,52,14.50
2015,06,22,02,53,14.60
2015,06,22,02,54,14.70
2015,06,22,02,55,14.90
2015,06,22,02,56,15.00
2015,06,22,02,57,15.10
2015,06,22,02,58,15.20
2015,06,22,02,59,15.20
2015,06,22,03,00,15.30
2015,06,22,03,01,15.30
2015,06,22,03,02,15.30
2015,06,22,03,03,15.30
2015,06,22,03,04,15.30
2015,06,22,03,05,15.30
2015,06,22,03,06,15.30
2015,06,22,03,07,15.30
2015,06,22,03,08,15.30
2015,06,22,03,09,15.30
2015,06,22,03,10,15.30
2015,06,22,03,11,15.30
2015,06,22,03,12,15.30
2015,06,22,03,13,15.30
2015,06,22,03,14,15.30
2015,06,22,03,15,15.30
2015,06,22,03,16,15.30
2015,06,22,03,17,15.20
2015,06,22,03,18,15.20
2015,06,22,03,19,15.20
2015,06,22,03,20,15.20
2015,06,22,03,21,15.20
2015,06,22,03,22,15.20
2015,06,22,03,23,15.10
2015,06,22,03,24,15.10
2015,06,22,03,25,15.10
2015,06,22,03,26,15.10
2015,06,22,03,27,15.00
2015,06,22,03,28,15.10
2015,06,22,03,29,15.10
2015,06,22,03,30,15.10
2015,06,22,03,31,15.10
2015,06,22,03,32,15.10
2015,06,22,03,33,15.00
2015,06,22,03,34,15.00
2015,06,22,03,35,15.00
2015,06,22,03,36,15.00
2015,06,22,03,37,14.90
2015,06,22,03,38,14.90
2015,06,22,03,39,14.90
2015,06,22,03,40,14.80
2015,06,22,03,41,14.80
2015,06,22,03,42,14.80
2015,06,22,03,43,14.70
2015,06,22,03,44,14.70
2015,06,22,03,45,14.70
2015,06,22,03,46,14.60
2015,06,22,03,47,14.60
2015,06,22,03,48,14.60
2015,06,22,03,49,14.50
2015,06,22,03,50,14.50
2015,06,22,03,51,14.50
2015,06,22,03,52,14.50
2015,06,22,03,53,14.40
2015,06,22,03,54,14.40
2015,06,22,03,55,14.40
2015,06,22,03,56,14.40
2015,06,22,03,57,14.40
2015,06,22,03,58,14.40
2015,06,22,03,59,14.40
2015,06,22,04,00,14.30
2015,06,22,04,01,14.30
2015,06,22,04,02,14.30
2015,06,22,04,03,14.30
2015,06,22,04,04,14.20
2015,06,22,04,05,14.20
2015,06,22,04,06,14.10
2015,06,22,04,07,14.10
2015,06,22,04,08,14.10
2015,06,22,04,09,14.00
2015,06,22,04,10,14.00
2015,06,22,04,11,13.90
2015,06,22,04,12,13.90
2015,06,22,04,13,13.90
2015,06,22,04,14,13.90
2015,06,22,04,15,13.90
2015,06,22,04,16,13.90
2015,06,22,04,17,13.90
2015,06,22,04,18,13.90
2015,06,22,04,19,13.90
2015,06,22,04,20,13.80
2015,06,22,04,21,13.80
2015,06,22,04,22,13.80
2015,06,22,04,23,13.80
2015,06,22,04,24,13.80
2015,06,22,04,25,13.80
2015,06,22,04,26,13.80
2015,06,22,04,27,13.80
2015,06,22,04,28,13.80
2015,06,22,04,29,13.80
2015,06,22,04,30,13.80
2015,06,22,04,31,13.80
2015,06,22,04,32,13.70
2015,06,22,04,33,13.70
2015,06,22,04,34,13.70
2015,06,22,04,35,13.70
2015,06,22,04,36,13.70
2015,06,22,04,37,13.70
2015,06,22,04,38,13.60
2015,06,22,04,39,13.60
2015,06,22,04,40,13.60
2015,06,22,04,41,13.60
2015,06,22,04,42,13.60
2015,06,22,04,43,13.60
2015,06,22,04,44,13.60
2015,06,22,04,45,13.60
2015,06,22,04,46,13.50
2015,06,22,04,47,13.50
2015,06,22,04,48,13.50
2015,06,22,04,49,13.50
2015,06,22,04,50,13.40
2015,06,22,04,51,13.40
2015,06,22,04,52,13.40
2015,06,22,04,53,13.40
2015,06,22,04,54,13.40
2015,06,22,04,55,13.30
2015,06,22,04,56,13.30
2015,06,22,04,57,13.30
2015,06,22,04,58,13.30
2015,06,22,04,59,13.30
2015,06,22,05,00,13.30
2015,06,22,05,01,13.30
2015,06,22,05,02,13.30
2015,06,22,05,03,13.30
2015,06,22,05,04,13.30
2015,06,22,05,05,13.30
2015,06,22,05,06,13.30
2015,06,22,05,07,13.30
2015,06,22,05,08,13.30
2015,06,22,05,09,13.30
2015,06,22,05,10,13.30
2015,06,22,05,11,13.30
2015,06,22,05,12,13.30
2015,06,22,05,13,13.30
2015,06,22,05,14,13.30
2015,06,22,05,15,13.30
2015,06,22,05,16,13.30
2015,06,22,05,17,13.30
2015,06,22,05,18,13.30
2015,06,22,05,19,13.20
2015,06,22,05,20,13.20
2015,06,22,05,21,13.20
2015,06,22,05,22,13.20
2015,06,22,05,23,13.20
2015,06,22,05,24,13.20
2015,06,22,05,25,13.20
2015,06,22,05,26,13.20
2015,06,22,05,27,13.20
2015,06,22,05,28,13.20
2015,06,22,05,29,13.20
2015,06,22,05,30,13.20
2015,06,22,05,31,13.30
2015,06,22,05,32,13.30
2015,06,22,05,33,13.30
2015,06,22,05,34,13.30
2015,06,22,05,35,13.20
2015,06,22,05,36,13.20
2015,06,22,05,37,13.20
2015,06,22,05,38,13.20
2015,06,22,05,39,13.20
2015,06,22,05,40,13.20
2015,06,22,05,41,13.20
2015,06,22,05,42,13.20
2015,06,22,05,43,13.20
2015,06,22,05,44,13.20
2015,06,22,05,45,13.20
2015,06,22,05,46,13.20
2015,06,22,05,47,13.20
2015,06,22,05,48,13.20
2015,06,22,05,49,13.20
2015,06,22,05,50,13.10
2015,06,22,05,51,13.10
2015,06,22,05,52,13.10
2015,06,22,05,53,13.10
2015,06,22,05,54,13.10
2015,06,22,05,55,13.10
2015,06,22,05,56,13.10
2015,06,22,05,57,13.10
2015,06,22,05,58,13.10
2015,06,22,05,59,13.10
2015,06,22,06,00,13.10
2015,06,22,06,01,13.10
2015,06,22,06,02,13.10
2015,06,22,06,03,13.10
2015,06,22,06,04,13.10
2015,06,22,06,05,13.10
2015,06,22,06,06,13.10
2015,06,22,06,07,13.10
2015,06,22,06,08,13.10
2015,06,22,06,09,13.10
2015,06,22,06,10,13.10
2015,06,22,06,11,13.10
2015,06,22,06,12,13.20
2015,06,22,06,13,13.20
2015,06,22,06,14,13.20
2015,06,22,06,15,13.20
2015,06,22,06,16,13.20
2015,06,22,06,17,13.20
2015,06,22,06,18,13.20
2015,06,22,06,19,13.20
2015,06,22,06,20,13.20
2015,06,22,06,21,13.20
2015,06,22,06,22,13.20
2015,06,22,06,23,13.20
2015,06,22,06,24,13.20
2015,06,22,06,25,13.20
2015,06,22,06,26,13.20
2015,06,22,06,27,13.20
2015,06,22,06,28,13.30
2015,06,22,06,29,13.30
2015,06,22,06,30,13.30
2015,06,22,06,31,13.30
2015,06,22,06,32,13.30
2015,06,22,06,33,13.40
2015,06,22,06,34,13.40
2015,06,22,06,35,13.50
2015,06,22,06,36,13.50
2015,06,22,06,37,13.60
2015,06,22,06,38,13.60
2015,06,22,06,39,13.60
2015,06,22,06,40,13.60
2015,06,22,06,41,13.70
2015,06,22,06,42,13.70
2015,06,22,06,43,13.70
2015,06,22,06,44,13.70
2015,06,22,06,45,13.80
2015,06,22,06,46,13.80
2015,06,22,06,47,13.90
2015,06,22,06,48,13.90
2015,06,22,06,49,13.90
2015,06,22,06,50,14.00
2015,06,22,06,51,14.00
2015,06,22,06,52,14.00
2015,06,22,06,53,14.00
2015,06,22,06,54,14.10
2015,06,22,06,55,14.10
2015,06,22,06,56,14.10
2015,06,22,06,57,14.10
2015,06,22,06,58,14.20
2015,06,22,06,59,14.20
2015,06,22,07,00,14.20
2015,06,22,07,01,14.20
2015,06,22,07,02,14.30
2015,06,22,07,03,14.30
2015,06,22,07,04,14.30
2015,06,22,07,05,14.30
2015,06,22,07,06,14.30
2015,06,22,07,07,14.40
2015,06,22,07,08,14.40
2015,06,22,07,09,14.40
2015,06,22,07,10,14.40
2015,06,22,07,11,14.50
2015,06,22,07,12,14.50
2015,06,22,07,13,14.60
2015,06,22,07,14,14.60
2015,06,22,07,15,14.60
2015,06,22,07,16,14.70
2015,06,22,07,17,14.70
2015,06,22,07,18,14.70
2015,06,22,07,19,14.70
2015,06,22,07,20,14.80
2015,06,22,07,21,14.80
2015,06,22,07,22,14.80
2015,06,22,07,23,14.80
2015,06,22,07,24,14.80
2015,06,22,07,25,14.90
2015,06,22,07,26,14.90
2015,06,22,07,27,14.90
2015,06,22,07,28,14.90
2015,06,22,07,29,14.90
2015,06,22,07,30,15.00
2015,06,22,07,31,15.00
2015,06,22,07,32,15.10
2015,06,22,07,33,15.10
2015,06,22,07,34,15.10
2015,06,22,07,35,15.10
2015,06,22,07,36,15.20
2015,06,22,07,37,15.20
2015,06,22,07,38,15.30
2015,06,22,07,39,15.30
2015,06,22,07,40,15.40
2015,06,22,07,41,15.40
2015,06,22,07,42,15.40
2015,06,22,07,43,15.50
2015,06,22,07,44,15.50
2015,06,22,07,45,15.60
2015,06,22,07,46,15.60
2015,06,22,07,47,15.70
2015,06,22,07,48,15.70
2015,06,22,07,49,15.80
2015,06,22,07,50,15.90
2015,06,22,07,51,16.00
2015,06,22,07,52,16.00
2015,06,22,07,53,16.10
2015,06,22,07,54,16.20
2015,06,22,07,55,16.30
2015,06,22,07,56,16.40
2015,06,22,07,57,16.50
2015,06,22,07,58,16.60
2015,06,22,07,59,16.60
2015,06,22,08,00,16.70
2015,06,22,08,01,16.80
2015,06,22,08,02,16.90
2015,06,22,08,03,17.00
2015,06,22,08,04,17.10
2015,06,22,08,05,17.20
2015,06,22,08,06,17.30
2015,06,22,08,07,17.30
2015,06,22,08,08,17.40
2015,06,22,08,09,17.50
2015,06,22,08,10,17.60
2015,06,22,08,11,17.60
2015,06,22,08,12,17.70
2015,06,22,08,13,17.80
2015,06,22,08,14,17.90
2015,06,22,08,15,18.00
2015,06,22,08,16,18.00
2015,06,22,08,17,18.10
2015,06,22,08,18,18.20
2015,06,22,08,19,18.30
2015,06,22,08,20,18.30
2015,06,22,08,21,18.40
2015,06,22,08,22,18.50
2015,06,22,08,23,18.60
2015,06,22,08,24,18.70
2015,06,22,08,25,18.70
2015,06,22,08,26,18.80
2015,06,22,08,27,18.80
2015,06,22,08,28,18.90
2015,06,22,08,29,18.90
2015,06,22,08,30,18.90
2015,06,22,08,31,18.90
2015,06,22,08,32,18.90
2015,06,22,08,33,18.90
2015,06,22,08,34,18.90
2015,06,22,08,35,18.90
2015,06,22,08,36,18.90
2015,06,22,08,37,19.00
2015,06,22,08,38,19.00
2015,06,22,08,39,19.10
2015,06,22,08,40,19.10
2015,06,22,08,41,19.10
2015,06,22,08,42,19.10
2015,06,22,08,43,19.10
2015,06,22,08,44,19.10
2015,06,22,08,45,19.10
2015,06,22,08,46,19.10
2015,06,22,08,47,19.10
2015,06,22,08,48,19.20
2015,06,22,08,49,19.10
2015,06,22,08,50,19.10
2015,06,22,08,51,19.10
2015,06,22,08,52,19.00
2015,06,22,08,53,19.00
2015,06,22,08,54,19.00
2015,06,22,08,55,19.00
2015,06,22,08,56,19.00
2015,06,22,08,57,19.00
2015,06,22,08,58,19.10
2015,06,22,08,59,19.10
2015,06,22,09,00,19.10
2015,06,22,09,01,19.20
2015,06,22,09,02,19.20
2015,06,22,09,03,19.20
2015,06,22,09,04,19.30
2015,06,22,09,05,19.30
2015,06,22,09,06,19.30
2015,06,22,09,07,19.20
2015,06,22,09,08,19.20
2015,06,22,09,09,19.30
2015,06,22,09,10,19.30
2015,06,22,09,11,19.30
2015,06,22,09,12,19.30
2015,06,22,09,13,19.30
2015,06,22,09,14,19.30
2015,06,22,09,15,19.30
2015,06,22,09,16,19.30
2015,06,22,09,17,19.30
2015,06,22,09,18,19.30
2015,06,22,09,19,19.30
2015,06,22,09,20,19.30
2015,06,22,09,21,19.30
2015,06,22,09,22,19.30
2015,06,22,09,23,19.20
2015,06,22,09,24,19.30
2015,06,22,09,25,19.30
2015,06,22,09,26,19.30
2015,06,22,09,27,19.30
2015,06,22,09,28,19.40
2015,06,22,09,29,19.50
2015,06,22,09,30,19.50
2015,06,22,09,31,19.50
2015,06,22,09,32,19.50
2015,06,22,09,33,19.40
2015,06,22,09,34,19.40
2015,06,22,09,35,19.40
2015,06,22,09,36,19.40
2015,06,22,09,37,19.40
2015,06,22,09,38,19.40
2015,06,22,09,39,19.40
2015,06,22,09,40,19.50
2015,06,22,09,41,19.50
2015,06,22,09,42,19.60
2015,06,22,09,43,19.60
2015,06,22,09,44,19.70
2015,06,22,09,45,19.70
2015,06,22,09,46,19.80
2015,06,22,09,47,19.70
2015,06,22,09,48,19.70
2015,06,22,09,49,19.70
2015,06,22,09,50,19.70
2015,06,22,09,51,19.70
2015,06,22,09,52,19.70
2015,06,22,09,53,19.80
2015,06,22,09,54,19.80
2015,06,22,09,55,19.80
2015,06,22,09,56,19.80
2015,06,22,09,57,19.80
2015,06,22,09,58,19.80
2015,06,22,09,59,19.80
2015,06,22,10,00,19.80
2015,06,22,10,01,19.80
2015,06,22,10,02,19.80
2015,06,22,10,03,19.80
2015,06,22,10,04,19.80
2015,06,22,10,05,19.80
2015,06,22,10,06,19.90
2015,06,22,10,07,19.90
2015,06,22,10,08,19.90
2015,06,22,10,09,19.90
2015,06,22,10,10,19.90
2015,06,22,10,11,19.90
2015,06,22,10,12,19.90
2015,06,22,10,13,19.90
2015,06,22,10,14,19.80
2015,06,22,10,15,19.90
2015,06,22,10,16,19.90
2015,06,22,10,17,20.00
2015,06,22,10,18,20.10
2015,06,22,10,19,20.10
2015,06,22,10,20,20.10
2015,06,22,10,21,20.10
2015,06,22,10,22,20.20
2015,06,22,10,23,20.30
2015,06,22,10,24,20.30
2015,06,22,10,25,20.30
2015,06,22,10,26,20.30
2015,06,22,10,27,20.40
2015,06,22,10,28,20.40
2015,06,22,10,29,20.40
2015,06,22,10,30,20.50
2015,06,22,10,31,20.50
2015,06,22,10,32,20.60
2015,06,22,10,33,20.60
2015,06,22,10,34,20.60
2015,06,22,10,35,20.60
2015,06,22,10,36,20.50
2015,06,22,10,37,20.50
2015,06,22,10,38,20.40
2015,06,22,10,39,20.40
2015,06,22,10,40,20.40
2015,06,22,10,41,20.40
2015,06,22,10,42,20.30
2015,06,22,10,43,20.30
2015,06,22,10,44,20.30
2015,06,22,10,45,20.30
2015,06,22,10,46,20.40
2015,06,22,10,47,20.40
2015,06,22,10,48,20.40
2015,06,22,10,49,20.30
2015,06,22,10,50,20.30
2015,06,22,10,51,20.20
2015,06,22,10,52,20.20
2015,06,22,10,53,20.20
2015,06,22,10,54,20.20
2015,06,22,10,55,20.20
2015,06,22,10,56,20.20
2015,06,22,10,57,20.20
2015,06,22,10,58,20.30
2015,06,22,10,59,20.40
2015,06,22,11,00,20.50
2015,06,22,11,01,20.60
2015,06,22,11,02,20.60
2015,06,22,11,03,20.60
2015,06,22,11,04,20.60
2015,06,22,11,05,20.60
2015,06,22,11,06,20.70
2015,06,22,11,07,20.70
2015,06,22,11,08,20.70
2015,06,22,11,09,20.60
2015,06,22,11,10,20.50
2015,06,22,11,11,20.60
2015,06,22,11,12,20.50
2015,06,22,11,13,20.50
2015,06,22,11,14,20.60
2015,06,22,11,15,20.60
2015,06,22,11,16,20.60
2015,06,22,11,17,20.70
2015,06,22,11,18,20.70
2015,06,22,11,19,20.70
2015,06,22,11,20,20.70
2015,06,22,11,21,20.70
2015,06,22,11,22,20.70
2015,06,22,11,23,20.60
2015,06,22,11,24,20.60
2015,06,22,11,25,20.60
2015,06,22,11,26,20.70
2015,06,22,11,27,20.70
2015,06,22,11,28,20.70
2015,06,22,11,29,20.70
2015,06,22,11,30,20.70
2015,06,22,11,31,20.80
2015,06,22,11,32,20.80
2015,06,22,11,33,20.80
2015,06,22,11,34,20.80
2015,06,22,11,35,20.80
2015,06,22,11,36,20.80
2015,06,22,11,37,20.80
2015,06,22,11,38,20.80
2015,06,22,11,39,20.90
2015,06,22,11,40,21.00
2015,06,22,11,41,21.00
2015,06,22,11,42,21.10
2015,06,22,11,43,21.10
2015,06,22,11,44,21.20
2015,06,22,11,45,21.20
2015,06,22,11,46,21.30
2015,06,22,11,47,21.30
2015,06,22,11,48,21.40
2015,06,22,11,49,21.50
2015,06,22,11,50,21.50
2015,06,22,11,51,21.60
2015,06,22,11,52,21.70
2015,06,22,11,53,21.80
2015,06,22,11,54,21.80
2015,06,22,11,55,21.80
2015,06,22,11,56,21.70
2015,06,22,11,57,21.70
2015,06,22,11,58,21.70
2015,06,22,11,59,21.70
2015,06,22,12,00,21.70
2015,06,22,12,01,21.70
2015,06,22,12,02,21.70
2015,06,22,12,03,21.70
2015,06,22,12,04,21.80
2015,06,22,12,05,21.80
2015,06,22,12,06,21.80
2015,06,22,12,07,21.90
2015,06,22,12,08,21.90
2015,06,22,12,09,21.90
2015,06,22,12,10,21.90
2015,06,22,12,11,21.80
2015,06,22,12,12,21.80
2015,06,22,12,13,21.70
2015,06,22,12,14,21.60
2015,06,22,12,15,21.60
2015,06,22,12,16,21.50
2015,06,22,12,17,21.50
2015,06,22,12,18,21.50
2015,06,22,12,19,21.60
2015,06,22,12,20,21.80
2015,06,22,12,21,21.90
2015,06,22,12,22,22.00
2015,06,22,12,23,22.00
2015,06,22,12,24,21.90
2015,06,22,12,25,22.00
2015,06,22,12,26,22.00
2015,06,22,12,27,22.00
2015,06,22,12,28,22.00
2015,06,22,12,29,21.90
2015,06,22,12,30,21.90
2015,06,22,12,31,22.00
2015,06,22,12,32,22.00
2015,06,22,12,33,22.10
2015,06,22,12,34,22.10
2015,06,22,12,35,22.10
2015,06,22,12,36,22.00
2015,06,22,12,37,22.00
2015,06,22,12,38,21.90
2015,06,22,12,39,21.80
2015,06,22,12,40,21.80
2015,06,22,12,41,21.80
2015,06,22,12,42,21.90
2015,06,22,12,43,21.90
2015,06,22,12,44,22.00
2015,06,22,12,45,22.00
2015,06,22,12,46,22.00
2015,06,22,12,47,22.00
2015,06,22,12,48,22.10
2015,06,22,12,49,22.10
2015,06,22,12,50,22.00
2015,06,22,12,51,21.90
2015,06,22,12,52,22.00
2015,06,22,12,53,21.90
2015,06,22,12,54,21.90
2015,06,22,12,55,21.80
2015,06,22,12,56,21.80
2015,06,22,12,57,21.80
2015,06,22,12,58,21.80
2015,06,22,12,59,21.90
2015,06,22,13,00,21.90
2015,06,22,13,01,22.00
2015,06,22,13,02,22.00
2015,06,22,13,03,22.10
2015,06,22,13,04,22.20
2015,06,22,13,05,22.30
2015,06,22,13,06,22.40
2015,06,22,13,07,22.40
2015,06,22,13,08,22.30
2015,06,22,13,09,22.30
2015,06,22,13,10,22.30
2015,06,22,13,11,22.30
2015,06,22,13,12,22.40
2015,06,22,13,13,22.50
2015,06,22,13,14,22.50
2015,06,22,13,15,22.50
2015,06,22,13,16,22.50
2015,06,22,13,17,22.40
2015,06,22,13,18,22.40
2015,06,22,13,19,22.50
2015,06,22,13,20,22.60
2015,06,22,13,21,22.60
2015,06,22,13,22,22.60
2015,06,22,13,23,22.70
2015,06,22,13,24,22.70
2015,06,22,13,25,22.80
2015,06,22,13,26,22.90
2015,06,22,13,27,22.90
2015,06,22,13,28,22.90
2015,06,22,13,29,22.80
2015,06,22,13,30,22.80
2015,06,22,13,31,22.90
2015,06,22,13,32,22.90
2015,06,22,13,33,23.00
2015,06,22,13,34,23.00
2015,06,22,13,35,23.00
2015,06,22,13,36,23.00
2015,06,22,13,37,23.00
2015,06,22,13,38,23.00
2015,06,22,13,39,23.00
2015,06,22,13,40,23.10
2015,06,22,13,41,23.10
2015,06,22,13,42,23.10
2015,06,22,13,43,23.10
2015,06,22,13,44,23.20
2015,06,22,13,45,23.30
2015,06,22,13,46,23.40
2015,06,22,13,47,23.40
2015,06,22,13,48,23.40
2015,06,22,13,49,23.30
2015,06,22,13,50,23.10
2015,06,22,13,51,22.90
2015,06,22,13,52,22.70
2015,06,22,13,53,22.70
2015,06,22,13,54,22.80
2015,06,22,13,55,22.80
2015,06,22,13,56,22.90
2015,06,22,13,57,23.00
2015,06,22,13,58,23.10
2015,06,22,13,59,23.10
2015,06,22,14,00,23.10
2015,06,22,14,01,23.10
2015,06,22,14,02,23.10
2015,06,22,14,03,22.90
2015,06,22,14,04,22.90
2015,06,22,14,05,22.90
2015,06,22,14,06,22.90
2015,06,22,14,07,23.00
2015,06,22,14,08,23.00
2015,06,22,14,09,23.10
2015,06,22,14,10,23.00
2015,06,22,14,11,23.10
2015,06,22,14,12,23.10
2015,06,22,14,13,23.10
2015,06,22,14,14,23.00
2015,06,22,14,15,23.00
2015,06,22,14,16,23.00
2015,06,22,14,17,23.00
2015,06,22,14,18,23.10
2015,06,22,14,19,23.20
2015,06,22,14,20,23.20
2015,06,22,14,21,23.10
2015,06,22,14,22,23.10
2015,06,22,14,23,23.10
2015,06,22,14,24,23.10
2015,06,22,14,25,23.20
2015,06,22,14,26,23.30
2015,06,22,14,27,23.40
2015,06,22,14,28,23.50
2015,06,22,14,29,23.70
2015,06,22,14,30,23.80
2015,06,22,14,31,23.80
2015,06,22,14,32,23.90
2015,06,22,14,33,23.90
2015,06,22,14,34,24.00
2015,06,22,14,35,24.10
2015,06,22,14,36,24.20
2015,06,22,14,37,24.30
2015,06,22,14,38,24.40
2015,06,22,14,39,24.40
2015,06,22,14,40,24.40
2015,06,22,14,41,24.40
2015,06,22,14,42,24.30
2015,06,22,14,43,24.30
2015,06,22,14,44,24.30
2015,06,22,14,45,24.30
2015,06,22,14,46,24.30
2015,06,22,14,47,24.20
2015,06,22,14,48,24.10
2015,06,22,14,49,24.00
2015,06,22,14,50,23.80
2015,06,22,14,51,23.70
2015,06,22,14,52,23.70
2015,06,22,14,53,23.70
2015,06,22,14,54,23.60
2015,06,22,14,55,23.60
2015,06,22,14,56,23.60
2015,06,22,14,57,23.60
2015,06,22,14,58,23.60
2015,06,22,14,59,23.50
2015,06,22,15,00,23.50
2015,06,22,15,01,23.50
2015,06,22,15,02,23.60
2015,06,22,15,03,23.60
2015,06,22,15,04,23.60
2015,06,22,15,05,23.60
2015,06,22,15,06,23.60
2015,06,22,15,07,23.70
2015,06,22,15,08,23.70
2015,06,22,15,09,23.80
2015,06,22,15,10,23.80
2015,06,22,15,11,23.80
2015,06,22,15,12,23.90
2015,06,22,15,13,23.90
2015,06,22,15,14,23.90
2015,06,22,15,15,23.90
2015,06,22,15,16,23.90
2015,06,22,15,17,24.00
2015,06,22,15,18,24.10
2015,06,22,15,19,24.10
2015,06,22,15,20,24.10
2015,06,22,15,21,24.00
2015,06,22,15,22,23.90
2015,06,22,15,23,23.90
2015,06,22,15,24,23.80
2015,06,22,15,25,23.70
2015,06,22,15,26,23.80
2015,06,22,15,27,23.80
2015,06,22,15,28,23.80
2015,06,22,15,29,23.80
2015,06,22,15,30,23.70
2015,06,22,15,31,23.70
2015,06,22,15,32,23.80
2015,06,22,15,33,23.80
2015,06,22,15,34,23.90
2015,06,22,15,35,23.90
2015,06,22,15,36,23.90
2015,06,22,15,37,24.00
2015,06,22,15,38,24.00
2015,06,22,15,39,24.10
2015,06,22,15,40,24.10
2015,06,22,15,41,24.10
2015,06,22,15,42,24.10
2015,06,22,15,43,23.90
2015,06,22,15,44,23.80
2015,06,22,15,45,23.70
2015,06,22,15,46,23.60
2015,06,22,15,47,23.60
2015,06,22,15,48,23.60
2015,06,22,15,49,23.50
2015,06,22,15,50,23.50
2015,06,22,15,51,23.50
2015,06,22,15,52,23.50
2015,06,22,15,53,23.50
2015,06,22,15,54,23.40
2015,06,22,15,55,23.40
2015,06,22,15,56,23.40
2015,06,22,15,57,23.40
2015,06,22,15,58,23.50
2015,06,22,15,59,23.70
2015,06,22,16,00,23.80
2015,06,22,16,01,23.80
2015,06,22,16,02,23.90
2015,06,22,16,03,23.90
2015,06,22,16,04,23.80
2015,06,22,16,05,23.80
2015,06,22,16,06,23.80
2015,06,22,16,07,23.70
2015,06,22,16,08,23.60
2015,06,22,16,09,23.50
2015,06,22,16,10,23.50
2015,06,22,16,11,23.50
2015,06,22,16,12,23.70
2015,06,22,16,13,23.90
2015,06,22,16,14,24.00
2015,06,22,16,15,24.00
2015,06,22,16,16,24.10
2015,06,22,16,17,24.10
2015,06,22,16,18,24.30
2015,06,22,16,19,24.40
2015,06,22,16,20,24.60
2015,06,22,16,21,24.70
2015,06,22,16,22,24.60
2015,06,22,16,23,24.50
2015,06,22,16,24,24.40
2015,06,22,16,25,24.30
2015,06,22,16,26,24.30
2015,06,22,16,27,24.40
2015,06,22,16,28,24.60
2015,06,22,16,29,24.70
2015,06,22,16,30,24.80
2015,06,22,16,31,24.80
2015,06,22,16,32,24.80
2015,06,22,16,33,24.90
2015,06,22,16,34,24.80
2015,06,22,16,35,24.60
2015,06,22,16,36,24.40
2015,06,22,16,37,24.30
2015,06,22,16,38,24.10
2015,06,22,16,39,24.00
2015,06,22,16,40,23.90
2015,06,22,16,41,23.80
2015,06,22,16,42,23.80
2015,06,22,16,43,23.80
2015,06,22,16,44,23.90
2015,06,22,16,45,23.90
2015,06,22,16,46,23.90
2015,06,22,16,47,23.90
2015,06,22,16,48,23.80
2015,06,22,16,49,23.80
2015,06,22,16,50,23.80
2015,06,22,16,51,23.80
2015,06,22,16,52,23.80
2015,06,22,16,53,23.80
2015,06,22,16,54,23.80
2015,06,22,16,55,23.80
2015,06,22,16,56,23.70
2015,06,22,16,57,23.70
2015,06,22,16,58,23.60
2015,06,22,16,59,23.60
2015,06,22,17,00,23.60
2015,06,22,17,01,23.50
2015,06,22,17,02,23.40
2015,06,22,17,03,23.40
2015,06,22,17,04,23.40
2015,06,22,17,05,23.30
2015,06,22,17,06,23.30
2015,06,22,17,07,23.30
2015,06,22,17,08,23.20
2015,06,22,17,09,23.20
2015,06,22,17,10,23.20
2015,06,22,17,11,23.20
2015,06,22,17,12,23.20
2015,06,22,17,13,23.20
2015,06,22,17,14,23.20
2015,06,22,17,15,23.20
2015,06,22,17,16,23.20
2015,06,22,17,17,23.20
2015,06,22,17,18,23.20
2015,06,22,17,19,23.20